Red Deer, Alberta

11:36 AM MST on December 07, 2016 (GMT -0700)
Red Deer Industrial

Weather History for CYQF - July, 2013

Change the Weather History Date:

Saturday, July 20, 2013

  Actual Average Record
Temperature  
Mean Temperature 66 °F -  
Max Temperature 78 °F 71 °F 80 °F (1997)
Min Temperature 54 °F 48 °F 39 °F (1996)
Cooling Degree Days 1    
Growing Degree Days 16 (Base 50)    
Moisture  
Dew Point 55 °F    
Average Humidity 70    
Maximum Humidity 94    
Minimum Humidity 30    
Precipitation  
Precipitation 0.20 in - - ()
Sea Level Pressure  
Sea Level Pressure 29.91 in    
Wind  
Wind Speed 4 mph ()    
Max Wind Speed 34 mph    
Max Gust Speed 53 mph    
Visibility 14.3 miles    
Events Fog , Rain , Thunderstorm    
Averages and records for this station are not official NWS values.
T = Trace of Precipitation, MM = Missing Value Source: Averaged Metar Reports

Daily Weather History Graph

Daily Weather History Graph

Search for Another Location

Airport or City:

Trip Planner

Search our weather history database for the weather conditions in past years. The results will help you decide how hot, cold, wet, or windy it might be!

Date:

Astronomy

Jul. 20, 2013 Rise Set
Actual Time 5:39 AM MDT 9:43 PM MDT
Civil Twilight 4:54 AM MDT 10:27 PM MDT
Nautical Twilight 3:50 AM MDT 11:31 PM MDT
Astronomical Twilight 2:14 AM MDT 1:09 AM MDT
Moon 7:48 PM MDT (7/20) 3:24 AM MDT (7/20)
Length of Visible Light 17h 32m
Length of Day
16h 03m
Waxing Gibbous, 94% of the Moon is Illuminated
Jul 20
Waxing Gibbous
Jul 22
Full
Jul 29
Last Quarter
Aug 6
New
Aug 14
First Quarter

Hourly Weather History & Observations

Time (MDT) Temp. Dew Point Humidity Pressure Visibility Wind Dir Wind Speed Gust Speed Precip Events Conditions
12:00 AM 57 °F 54 °F 87% 30.07 in 15 mi WSW 3.5 mph - -   Partly Cloudy
12:00 AM 57.2 °F 53.6 °F 88% 30.07 in 15.0 mi WNW 3.5 mph - N/A   Mostly Cloudy
1:00 AM 55.4 °F 53.6 °F 94% 30.06 in 15.0 mi West 4.6 mph - N/A   Mostly Cloudy
2:00 AM 57.2 °F 53.6 °F 88% 30.06 in 15.0 mi Calm Calm - N/A   Mostly Cloudy
3:00 AM 57.2 °F 53.6 °F 88% 30.04 in 15.0 mi SE 2.3 mph - N/A   Mostly Cloudy
4:00 AM 57.2 °F 53.6 °F 88% 30.02 in 15.0 mi Calm Calm - N/A   Mostly Cloudy
5:00 AM 55.4 °F 53.6 °F 94% 30.01 in 15.0 mi Calm Calm - N/A   Mostly Cloudy
6:00 AM 55 °F 53 °F 91% 30.00 in 15 mi Calm Calm - - Fog Patches of Fog
6:00 AM 55.4 °F 53.6 °F 94% 30.00 in 15.0 mi Calm Calm - N/A Fog Shallow Fog
7:00 AM 55.4 °F 53.6 °F 94% 29.98 in 15.0 mi Calm Calm - N/A   Partly Cloudy
8:00 AM 59.0 °F 57.2 °F 94% 29.97 in 15.0 mi SSE 3.5 mph - N/A   Partly Cloudy
9:00 AM 64.4 °F 57.2 °F 77% 29.96 in 15.0 mi South 4.6 mph - N/A   Mostly Cloudy
10:00 AM 66.2 °F 57.2 °F 73% 29.94 in 15.0 mi South 5.8 mph - N/A   Mostly Cloudy
11:00 AM 69.8 °F 57.2 °F 64% 29.92 in 15.0 mi SSE 9.2 mph - N/A   Mostly Cloudy
12:00 PM 71 °F 58 °F 56% 29.90 in 15 mi South 8.1 mph - -   Scattered Clouds
12:00 PM 71.6 °F 59.0 °F 64% 29.90 in 15.0 mi South 6.9 mph - N/A   Scattered Clouds
1:00 PM 73.4 °F 59.0 °F 61% 29.88 in 15.0 mi SE 5.8 mph - N/A   Scattered Clouds
2:00 PM 77.0 °F 57.2 °F 50% 29.87 in 15.0 mi Calm Calm - N/A   Partly Cloudy
3:00 PM 77.0 °F 53.6 °F 44% 29.83 in 15.0 mi NE 3.5 mph - N/A   Partly Cloudy
4:00 PM 77.0 °F 48.2 °F 36% 29.82 in 15.0 mi Calm Calm - N/A   Partly Cloudy
5:00 PM 77.0 °F 51.8 °F 41% 29.81 in 15.0 mi Calm Calm - N/A   Partly Cloudy
6:00 PM 78 °F 53 °F 30% 29.79 in 15 mi Calm Calm - -   Scattered Clouds
6:00 PM 78.8 °F 51.8 °F 39% 29.79 in 15.0 mi SSW 2.3 mph - N/A   Partly Cloudy
7:00 PM 77.0 °F 55.4 °F 47% 29.78 in 15.0 mi SSE 3.5 mph - N/A   Partly Cloudy
8:00 PM 75.2 °F 59.0 °F 57% 29.75 in 15.0 mi SSE 5.8 mph - N/A   Partly Cloudy
9:00 PM 69.8 °F 60.8 °F 73% 29.73 in 15.0 mi ESE 3.5 mph - N/A   Mostly Cloudy
10:00 PM 68.0 °F 60.8 °F 78% 29.72 in 15.0 mi SSW 9.2 mph - N/A Thunderstorm Thunderstorm
10:21 PM - - N/A% - 15.0 mi North 23.0 mph 28.8 mph N/A Thunderstorm Thunderstorm
10:29 PM - - N/A% - 15.0 mi NNE 34.5 mph 52.9 mph N/A Thunderstorm Thunderstorm
11:00 PM 60.8 °F 55.4 °F 82% 29.77 in 15.0 mi NNE 10.4 mph - N/A Thunderstorm Thunderstorm
11:31 PM - - N/A% - 15.0 mi North 13.8 mph 23.0 mph N/A Rain , Thunderstorm Light Thunderstorms and Rain
11:37 PM - - N/A% - 4.0 mi North 17.3 mph 28.8 mph N/A Rain , Thunderstorm Thunderstorms and Rain
11:41 PM - - N/A% - 3.0 mi NNE 17.3 mph 28.8 mph N/A Rain , Thunderstorm Heavy Thunderstorms and Rain